Time,TemperatureF,DewpointF,PressureIn,WindDirection,WindDirectionDegrees,WindSpeedMPH,WindSpeedGustMPH,Humidity,HourlyPrecipIn,Conditions,Clouds,dailyrainin,SoftwareType,DateUTC
2013-07-09 00:01:00,74.7,69.6,30.14,ENE,71,0.0,0.0,84,0.00,,SKC,0.00,VWS V14.01,2013-07-09 05:01:00,
2013-07-09 00:06:00,74.7,69.6,30.14,ENE,71,0.0,0.0,84,0.00,,SKC,0.00,VWS V14.01,2013-07-09 05:06:00,
2013-07-09 00:11:00,74.7,69.6,30.13,ENE,71,0.0,0.0,84,0.00,,SKC,0.00,VWS V14.01,2013-07-09 05:11:00,
2013-07-09 00:16:00,74.6,69.4,30.13,ENE,71,0.0,0.0,84,0.00,,SKC,0.00,VWS V14.01,2013-07-09 05:16:00,
2013-07-09 00:21:00,74.6,69.4,30.13,ENE,71,0.0,0.0,84,0.00,,SKC,0.00,VWS V14.01,2013-07-09 05:21:00,
2013-07-09 00:26:00,74.6,69.4,30.13,ENE,71,0.0,1.0,84,0.00,,SKC,0.00,VWS V14.01,2013-07-09 05:26:00,
2013-07-09 00:31:00,74.8,69.7,30.13,ENE,71,0.0,0.0,84,0.00,,SKC,0.00,VWS V14.01,2013-07-09 05:31:00,
2013-07-09 00:36:00,74.7,69.6,30.13,ENE,71,0.0,0.0,84,0.00,,SKC,0.00,VWS V14.01,2013-07-09 05:36:00,
2013-07-09 00:41:00,74.5,69.3,30.13,ENE,71,0.0,0.0,84,0.00,,SKC,0.00,VWS V14.01,2013-07-09 05:41:00,
2013-07-09 00:46:00,74.4,69.3,30.13,ENE,71,0.0,0.0,84,0.00,,SKC,0.00,VWS V14.01,2013-07-09 05:46:00,
2013-07-09 00:51:00,74.3,69.2,30.13,ENE,71,0.0,0.0,84,0.00,,SKC,0.00,VWS V14.01,2013-07-09 05:51:00,
2013-07-09 00:56:00,74.1,69.3,30.13,ENE,71,0.0,0.0,85,0.00,,SKC,0.00,VWS V14.01,2013-07-09 05:56:00,
2013-07-09 01:01:00,73.9,68.8,30.12,ENE,71,0.0,0.0,84,0.00,,SKC,0.00,VWS V14.01,2013-07-09 06:01:00,
2013-07-09 01:06:00,73.9,68.8,30.12,ENE,71,0.0,0.0,84,0.00,,SKC,0.00,VWS V14.01,2013-07-09 06:06:00,
2013-07-09 01:11:00,73.8,68.7,30.12,ENE,71,0.0,0.0,84,0.00,,SKC,0.00,VWS V14.01,2013-07-09 06:11:00,
2013-07-09 01:16:00,73.7,68.6,30.12,ENE,71,0.0,0.0,84,0.00,,SKC,0.00,VWS V14.01,2013-07-09 06:16:00,
2013-07-09 01:21:00,73.6,68.5,30.11,ENE,71,0.0,0.0,84,0.00,,SKC,0.00,VWS V14.01,2013-07-09 06:21:00,
2013-07-09 01:26:00,73.5,68.4,30.12,ENE,71,0.0,0.0,84,0.00,,SKC,0.00,VWS V14.01,2013-07-09 06:26:00,
2013-07-09 01:31:00,73.5,68.4,30.12,ENE,71,0.0,0.0,84,0.00,,SKC,0.00,VWS V14.01,2013-07-09 06:31:00,
2013-07-09 01:36:00,73.5,68.4,30.11,ENE,71,0.0,0.0,84,0.00,,SKC,0.00,VWS V14.01,2013-07-09 06:36:00,
2013-07-09 01:41:00,73.5,68.4,30.12,ENE,71,0.0,0.0,84,0.00,,SKC,0.00,VWS V14.01,2013-07-09 06:41:00,
2013-07-09 01:46:00,73.4,68.3,30.12,ENE,71,0.0,0.0,84,0.00,,SKC,0.00,VWS V14.01,2013-07-09 06:46:00,
2013-07-09 01:51:00,73.6,68.5,30.12,ENE,71,0.0,2.0,84,0.00,,SKC,0.00,VWS V14.01,2013-07-09 06:51:00,
2013-07-09 01:56:00,73.7,68.6,30.12,ENE,71,0.0,2.0,84,0.00,,SKC,0.00,VWS V14.01,2013-07-09 06:56:00,
2013-07-09 02:01:00,73.7,68.6,30.12,ENE,71,0.0,1.0,84,0.00,,SKC,0.00,VWS V14.01,2013-07-09 07:01:00,
2013-07-09 02:06:00,73.7,68.6,30.12,ENE,71,0.0,1.0,84,0.00,,SKC,0.00,VWS V14.01,2013-07-09 07:06:00,
2013-07-09 02:11:00,73.7,68.6,30.12,ENE,71,0.0,1.0,84,0.00,,SKC,0.00,VWS V14.01,2013-07-09 07:11:00,
2013-07-09 02:16:00,73.7,68.6,30.12,ENE,71,0.0,1.0,84,0.00,,SKC,0.00,VWS V14.01,2013-07-09 07:16:00,
2013-07-09 02:21:00,73.7,68.6,30.11,ENE,71,0.0,1.0,84,0.00,,SKC,0.00,VWS V14.01,2013-07-09 07:21:00,
2013-07-09 02:26:00,73.6,68.5,30.12,ENE,71,0.0,1.0,84,0.00,,SKC,0.00,VWS V14.01,2013-07-09 07:26:00,
2013-07-09 02:31:00,73.4,68.3,30.11,ENE,71,0.0,0.0,84,0.00,,SKC,0.00,VWS V14.01,2013-07-09 07:31:00,
2013-07-09 02:36:00,73.3,68.5,30.11,ENE,71,0.0,0.0,85,0.00,,SKC,0.00,VWS V14.01,2013-07-09 07:36:00,
2013-07-09 02:41:00,73.3,68.2,30.11,ENE,71,0.0,0.0,84,0.00,,SKC,0.00,VWS V14.01,2013-07-09 07:41:00,
2013-07-09 02:46:00,73.2,68.4,30.11,ENE,71,0.0,0.0,85,0.00,,SKC,0.00,VWS V14.01,2013-07-09 07:46:00,
2013-07-09 02:52:00,73.1,68.3,30.11,ENE,71,0.0,0.0,85,0.00,,SKC,0.00,VWS V14.01,2013-07-09 07:52:00,
2013-07-09 02:57:00,72.9,67.8,30.11,ENE,71,0.0,0.0,84,0.00,,SKC,0.00,VWS V14.01,2013-07-09 07:57:00,
2013-07-09 03:02:00,72.8,68.0,30.11,ENE,71,0.0,0.0,85,0.00,,SKC,0.00,VWS V14.01,2013-07-09 08:02:00,
2013-07-09 03:07:00,72.7,67.9,30.11,ENE,71,0.0,0.0,85,0.00,,SKC,0.00,VWS V14.01,2013-07-09 08:07:00,
2013-07-09 03:12:00,72.8,67.7,30.11,ENE,71,0.0,0.0,84,0.00,,SKC,0.00,VWS V14.01,2013-07-09 08:12:00,
2013-07-09 03:17:00,72.7,67.6,30.11,ENE,71,0.0,0.0,84,0.00,,SKC,0.00,VWS V14.01,2013-07-09 08:17:00,
2013-07-09 03:22:00,72.7,67.6,30.11,ENE,71,0.0,0.0,84,0.00,,SKC,0.00,VWS V14.01,2013-07-09 08:22:00,
2013-07-09 03:27:00,72.6,67.5,30.11,ENE,71,0.0,0.0,84,0.00,,SKC,0.00,VWS V14.01,2013-07-09 08:27:00,
2013-07-09 03:32:00,72.6,67.8,30.11,ENE,71,0.0,0.0,85,0.00,,SKC,0.00,VWS V14.01,2013-07-09 08:32:00,
2013-07-09 03:37:00,72.6,67.8,30.11,ENE,71,0.0,0.0,85,0.00,,SKC,0.00,VWS V14.01,2013-07-09 08:37:00,
2013-07-09 03:42:00,72.5,67.7,30.11,ENE,71,0.0,0.0,85,0.00,,SKC,0.00,VWS V14.01,2013-07-09 08:42:00,
2013-07-09 03:47:00,72.5,67.7,30.12,ENE,71,0.0,0.0,85,0.00,,SKC,0.00,VWS V14.01,2013-07-09 08:47:00,
2013-07-09 03:52:00,72.5,67.7,30.12,ENE,71,0.0,1.0,85,0.00,,SKC,0.00,VWS V14.01,2013-07-09 08:52:00,
2013-07-09 03:57:00,72.5,67.7,30.12,ENE,71,0.0,1.0,85,0.00,,SKC,0.00,VWS V14.01,2013-07-09 08:57:00,
2013-07-09 04:02:00,72.5,67.7,30.12,ENE,71,0.0,0.0,85,0.00,,SKC,0.00,VWS V14.01,2013-07-09 09:02:00,
2013-07-09 04:07:00,72.4,67.6,30.12,ENE,71,0.0,0.0,85,0.00,,SKC,0.00,VWS V14.01,2013-07-09 09:07:00,
2013-07-09 04:12:00,72.3,67.5,30.12,ENE,71,0.0,0.0,85,0.00,,SKC,0.00,VWS V14.01,2013-07-09 09:12:00,
2013-07-09 04:17:00,72.2,67.4,30.12,ENE,71,0.0,0.0,85,0.00,,SKC,0.00,VWS V14.01,2013-07-09 09:17:00,
2013-07-09 04:22:00,72.1,67.3,30.12,ENE,71,0.0,0.0,85,0.00,,SKC,0.00,VWS V14.01,2013-07-09 09:22:00,
2013-07-09 04:27:00,72.1,67.3,30.13,ENE,71,0.0,0.0,85,0.00,,SKC,0.00,VWS V14.01,2013-07-09 09:27:00,
2013-07-09 04:32:00,72.0,67.2,30.13,ENE,71,0.0,0.0,85,0.00,,SKC,0.00,VWS V14.01,2013-07-09 09:32:00,
2013-07-09 04:37:00,72.0,67.2,30.13,ENE,71,0.0,0.0,85,0.00,,SKC,0.00,VWS V14.01,2013-07-09 09:37:00,
2013-07-09 04:42:00,71.9,67.2,30.13,ENE,71,0.0,0.0,85,0.00,,SKC,0.00,VWS V14.01,2013-07-09 09:42:00,
2013-07-09 04:47:00,71.7,66.9,30.13,ENE,71,0.0,0.0,85,0.00,,SKC,0.00,VWS V14.01,2013-07-09 09:47:00,
2013-07-09 04:52:00,71.6,66.9,30.13,ENE,71,0.0,0.0,85,0.00,,SKC,0.00,VWS V14.01,2013-07-09 09:52:00,
2013-07-09 04:57:00,71.5,66.8,30.13,ENE,71,0.0,0.0,85,0.00,,SKC,0.00,VWS V14.01,2013-07-09 09:57:00,
2013-07-09 05:02:00,71.4,66.7,30.13,ENE,71,0.0,0.0,85,0.00,,SKC,0.00,VWS V14.01,2013-07-09 10:02:00,
2013-07-09 05:07:00,71.3,66.6,30.13,ENE,71,0.0,0.0,85,0.00,,SKC,0.00,VWS V14.01,2013-07-09 10:07:00,
2013-07-09 05:12:00,71.3,66.6,30.13,ENE,71,0.0,0.0,85,0.00,,SKC,0.00,VWS V14.01,2013-07-09 10:12:00,
2013-07-09 05:17:00,71.2,66.5,30.13,ENE,71,0.0,0.0,85,0.00,,SKC,0.00,VWS V14.01,2013-07-09 10:17:00,
2013-07-09 05:22:00,71.1,66.4,30.13,ENE,71,0.0,0.0,85,0.00,,SKC,0.00,VWS V14.01,2013-07-09 10:22:00,
2013-07-09 05:27:00,71.0,66.3,30.13,ENE,71,0.0,0.0,85,0.00,,SKC,0.00,VWS V14.01,2013-07-09 10:27:00,
2013-07-09 05:32:00,71.0,66.3,30.13,ENE,71,0.0,0.0,85,0.00,,SKC,0.00,VWS V14.01,2013-07-09 10:32:00,
2013-07-09 05:37:00,71.0,66.3,30.13,NNE,14,0.0,0.0,85,0.00,,SKC,0.00,VWS V14.01,2013-07-09 10:37:00,
2013-07-09 05:42:00,71.0,66.3,30.13,NNE,14,0.0,0.0,85,0.00,,SKC,0.00,VWS V14.01,2013-07-09 10:42:00,
2013-07-09 05:47:00,71.0,66.3,30.13,North,5,0.0,1.0,85,0.00,,SKC,0.00,VWS V14.01,2013-07-09 10:47:00,
2013-07-09 05:52:00,71.1,66.4,30.13,North,355,0.0,1.0,85,0.00,,SKC,0.00,VWS V14.01,2013-07-09 10:52:00,
2013-07-09 05:57:00,71.1,66.4,30.13,North,355,0.0,1.0,85,0.00,,SKC,0.00,VWS V14.01,2013-07-09 10:57:00,
2013-07-09 06:02:00,71.1,66.4,30.13,North,355,0.0,0.0,85,0.00,,SKC,0.00,VWS V14.01,2013-07-09 11:02:00,
2013-07-09 06:07:00,70.9,66.2,30.14,NNW,339,0.0,0.0,85,0.00,,SKC,0.00,VWS V14.01,2013-07-09 11:07:00,
2013-07-09 06:12:00,70.9,66.2,30.14,NNW,329,0.0,0.0,85,0.00,,SKC,0.00,VWS V14.01,2013-07-09 11:12:00,
2013-07-09 06:17:00,70.8,66.1,30.14,North,5,0.0,1.0,85,0.00,,SKC,0.00,VWS V14.01,2013-07-09 11:17:00,
2013-07-09 06:22:00,71.0,66.3,30.14,South,186,0.0,1.0,85,0.00,,SKC,0.00,VWS V14.01,2013-07-09 11:22:00,
2013-07-09 06:27:00,71.1,66.4,30.14,South,186,0.0,1.0,85,0.00,,SKC,0.00,VWS V14.01,2013-07-09 11:27:00,
2013-07-09 06:32:00,71.4,66.7,30.14,South,186,0.0,0.0,85,0.00,,SKC,0.00,VWS V14.01,2013-07-09 11:32:00,
2013-07-09 06:37:00,71.7,66.9,30.14,South,186,0.0,0.0,85,0.00,,SKC,0.00,VWS V14.01,2013-07-09 11:37:00,
2013-07-09 06:42:00,71.9,67.2,30.14,South,186,0.0,0.0,85,0.00,,SKC,0.00,VWS V14.01,2013-07-09 11:42:00,
2013-07-09 06:47:00,72.5,68.1,30.14,South,186,0.0,0.0,86,0.00,,SKC,0.00,VWS V14.01,2013-07-09 11:47:00,
2013-07-09 06:52:00,72.6,67.8,30.14,South,186,0.0,0.0,85,0.00,,SKC,0.00,VWS V14.01,2013-07-09 11:52:00,
2013-07-09 06:57:00,73.1,68.7,30.15,South,169,0.0,1.0,86,0.00,,SKC,0.00,VWS V14.01,2013-07-09 11:57:00,
2013-07-09 07:02:00,73.5,69.1,30.15,North,355,0.0,0.0,86,0.00,,SKC,0.00,VWS V14.01,2013-07-09 12:02:00,
2013-07-09 07:07:00,74.0,69.6,30.15,North,351,0.0,0.0,86,0.00,,SKC,0.00,VWS V14.01,2013-07-09 12:07:00,
2013-07-09 07:12:00,74.7,70.2,30.15,North,5,0.0,0.0,86,0.00,,SKC,0.00,VWS V14.01,2013-07-09 12:12:00,
2013-07-09 07:17:00,75.1,70.6,30.15,NNW,330,0.0,1.0,86,0.00,,SKC,0.00,VWS V14.01,2013-07-09 12:17:00,
2013-07-09 07:22:00,75.3,70.8,30.15,NNW,336,0.0,1.0,86,0.00,,SKC,0.00,VWS V14.01,2013-07-09 12:22:00,
2013-07-09 07:27:00,75.3,70.5,30.15,WNW,302,0.0,1.0,85,0.00,,SKC,0.00,VWS V14.01,2013-07-09 12:27:00,
2013-07-09 07:32:00,75.2,70.4,30.15,WNW,302,0.0,1.0,85,0.00,,SKC,0.00,VWS V14.01,2013-07-09 12:32:00,
2013-07-09 07:37:00,75.3,70.5,30.15,East,88,0.0,1.0,85,0.00,,SKC,0.00,VWS V14.01,2013-07-09 12:37:00,
2013-07-09 07:42:00,75.5,70.7,30.16,SE,124,0.0,1.0,85,0.00,,SKC,0.00,VWS V14.01,2013-07-09 12:42:00,
2013-07-09 07:47:00,75.8,71.0,30.16,ESE,123,0.0,1.0,85,0.00,,SKC,0.00,VWS V14.01,2013-07-09 12:47:00,
2013-07-09 07:52:00,76.2,71.0,30.16,ESE,121,1.0,3.0,84,0.00,,SKC,0.00,VWS V14.01,2013-07-09 12:52:00,
2013-07-09 07:57:00,76.6,71.8,30.16,ESE,121,0.0,3.0,85,0.00,,SKC,0.00,VWS V14.01,2013-07-09 12:57:00,
2013-07-09 08:02:00,76.9,72.1,30.16,ESE,121,0.0,1.0,85,0.00,,SKC,0.00,VWS V14.01,2013-07-09 13:02:00,
2013-07-09 08:07:00,77.4,72.5,30.16,ESE,121,0.0,1.0,85,0.00,,SKC,0.00,VWS V14.01,2013-07-09 13:07:00,
2013-07-09 08:12:00,77.8,73.6,30.16,ESE,121,0.0,1.0,87,0.00,,SKC,0.00,VWS V14.01,2013-07-09 13:12:00,
2013-07-09 08:17:00,78.3,74.5,30.16,ESE,121,0.0,1.0,88,0.00,,SKC,0.00,VWS V14.01,2013-07-09 13:17:00,
2013-07-09 08:22:00,78.9,75.4,30.17,ESE,121,0.0,1.0,89,0.00,,SKC,0.00,VWS V14.01,2013-07-09 13:22:00,
2013-07-09 08:27:00,79.5,76.3,30.17,ENE,66,0.0,1.0,90,0.00,,SKC,0.00,VWS V14.01,2013-07-09 13:27:00,
2013-07-09 08:32:00,80.2,77.0,30.17,South,188,0.0,1.0,90,0.00,,SKC,0.00,VWS V14.01,2013-07-09 13:32:00,
2013-07-09 08:37:00,80.1,76.9,30.17,South,188,0.0,5.0,90,0.00,,SKC,0.00,VWS V14.01,2013-07-09 13:37:00,
2013-07-09 08:42:00,80.0,76.8,30.17,ESE,104,2.0,5.0,90,0.00,,SKC,0.00,VWS V14.01,2013-07-09 13:42:00,
2013-07-09 08:47:00,80.2,77.0,30.17,East,98,0.0,5.0,90,0.00,,SKC,0.00,VWS V14.01,2013-07-09 13:47:00,
2013-07-09 08:52:00,80.5,77.3,30.17,East,98,2.0,5.0,90,0.00,,SKC,0.00,VWS V14.01,2013-07-09 13:52:00,
2013-07-09 08:57:00,80.4,77.2,30.17,East,98,4.0,6.0,90,0.00,,SKC,0.00,VWS V14.01,2013-07-09 13:57:00,
2013-07-09 09:02:00,80.4,76.9,30.17,East,100,1.0,4.0,89,0.00,,SKC,0.00,VWS V14.01,2013-07-09 14:02:00,
2013-07-09 09:07:00,80.8,77.3,30.17,East,96,1.0,5.0,89,0.00,,SKC,0.00,VWS V14.01,2013-07-09 14:07:00,
2013-07-09 09:12:00,81.2,77.3,30.17,East,95,0.0,5.0,88,0.00,,SKC,0.00,VWS V14.01,2013-07-09 14:12:00,
2013-07-09 09:17:00,81.5,77.6,30.17,East,95,0.0,5.0,88,0.00,,SKC,0.00,VWS V14.01,2013-07-09 14:17:00,
2013-07-09 09:22:00,81.5,76.9,30.17,East,95,1.0,5.0,86,0.00,,SKC,0.00,VWS V14.01,2013-07-09 14:22:00,
2013-07-09 09:27:00,81.4,77.2,30.17,NNE,13,0.0,6.0,87,0.00,,SKC,0.00,VWS V14.01,2013-07-09 14:27:00,
2013-07-09 09:32:00,81.6,77.0,30.17,NNW,343,0.0,1.0,86,0.00,,SKC,0.00,VWS V14.01,2013-07-09 14:32:00,
2013-07-09 09:37:00,82.0,77.1,30.17,NNW,330,1.0,5.0,85,0.00,,SKC,0.00,VWS V14.01,2013-07-09 14:37:00,
2013-07-09 09:42:00,82.3,76.6,30.17,NE,40,0.0,5.0,83,0.00,,SKC,0.00,VWS V14.01,2013-07-09 14:42:00,
2013-07-09 09:47:00,82.8,77.5,30.17,NE,52,0.0,5.0,84,0.00,,SKC,0.00,VWS V14.01,2013-07-09 14:47:00,
2013-07-09 09:52:00,83.3,77.2,30.17,NE,53,0.0,5.0,82,0.00,,SKC,0.00,VWS V14.01,2013-07-09 14:52:00,
2013-07-09 09:57:00,83.6,77.2,30.17,ENE,64,5.0,5.0,81,0.00,,SKC,0.00,VWS V14.01,2013-07-09 14:57:00,
2013-07-09 10:02:00,83.5,76.7,30.17,East,96,0.0,5.0,80,0.00,,SKC,0.00,VWS V14.01,2013-07-09 15:02:00,
2013-07-09 10:07:00,83.8,77.3,30.17,East,96,2.0,5.0,81,0.00,,SKC,0.00,VWS V14.01,2013-07-09 15:07:00,
2013-07-09 10:12:00,83.8,76.2,30.17,East,96,0.0,7.0,78,0.00,,SKC,0.00,VWS V14.01,2013-07-09 15:12:00,
2013-07-09 10:17:00,83.9,76.7,30.17,ESE,115,0.0,7.0,79,0.00,,SKC,0.00,VWS V14.01,2013-07-09 15:17:00,
2013-07-09 10:22:00,84.1,76.9,30.17,ESE,116,0.0,7.0,79,0.00,,SKC,0.00,VWS V14.01,2013-07-09 15:22:00,
2013-07-09 10:27:00,84.5,77.3,30.17,ESE,116,0.0,7.0,79,0.00,,SKC,0.00,VWS V14.01,2013-07-09 15:27:00,
2013-07-09 10:32:00,84.7,77.5,30.17,ESE,116,0.0,2.0,79,0.00,,SKC,0.00,VWS V14.01,2013-07-09 15:32:00,
2013-07-09 10:37:00,85.1,76.7,30.17,ESE,118,5.0,8.0,76,0.00,,SKC,0.00,VWS V14.01,2013-07-09 15:37:00,
2013-07-09 10:42:00,84.8,76.4,30.17,ESE,115,5.0,8.0,76,0.00,,SKC,0.00,VWS V14.01,2013-07-09 15:42:00,
2013-07-09 10:47:00,84.7,77.1,30.17,SE,125,5.0,8.0,78,0.00,,SKC,0.00,VWS V14.01,2013-07-09 15:47:00,
2013-07-09 10:52:00,85.0,77.8,30.17,SE,125,0.0,8.0,79,0.00,,SKC,0.00,VWS V14.01,2013-07-09 15:52:00,
2013-07-09 10:57:00,85.4,77.0,30.17,ENE,60,0.0,8.0,76,0.00,,SKC,0.00,VWS V14.01,2013-07-09 15:57:00,
2013-07-09 11:02:00,85.3,76.9,30.17,NW,316,0.0,6.0,76,0.00,,SKC,0.00,VWS V14.01,2013-07-09 16:02:00,
2013-07-09 11:07:00,85.0,77.0,30.17,NW,316,0.0,6.0,77,0.00,,SKC,0.00,VWS V14.01,2013-07-09 16:07:00,
2013-07-09 11:12:00,84.8,76.8,30.17,NW,316,1.0,6.0,77,0.00,,SKC,0.00,VWS V14.01,2013-07-09 16:12:00,
2013-07-09 11:17:00,84.3,76.7,30.17,NW,316,0.0,6.0,78,0.00,,SKC,0.00,VWS V14.01,2013-07-09 16:17:00,
2013-07-09 11:22:00,84.3,77.5,30.17,NW,316,0.0,6.0,80,0.00,,SKC,0.00,VWS V14.01,2013-07-09 16:22:00,
2013-07-09 11:27:00,84.2,77.7,30.17,NW,316,0.0,6.0,81,0.00,,SKC,0.00,VWS V14.01,2013-07-09 16:27:00,
2013-07-09 11:32:00,84.5,77.3,30.17,NW,316,0.0,1.0,79,0.00,,SKC,0.00,VWS V14.01,2013-07-09 16:32:00,
2013-07-09 11:37:00,85.0,76.2,30.17,ENE,74,0.0,5.0,75,0.00,,SKC,0.00,VWS V14.01,2013-07-09 16:37:00,
2013-07-09 11:42:00,85.7,77.7,30.17,ENE,69,4.0,5.0,77,0.00,,SKC,0.00,VWS V14.01,2013-07-09 16:42:00,
2013-07-09 11:47:00,85.4,77.4,30.17,WNW,283,0.0,6.0,77,0.00,,SKC,0.00,VWS V14.01,2013-07-09 16:47:00,
2013-07-09 11:52:00,84.7,77.8,30.16,WNW,283,0.0,6.0,80,0.00,,SKC,0.00,VWS V14.01,2013-07-09 16:52:00,
2013-07-09 11:57:00,84.2,77.4,30.16,WNW,283,0.0,6.0,80,0.00,,SKC,0.00,VWS V14.01,2013-07-09 16:57:00,
2013-07-09 12:02:00,84.2,77.4,30.16,WNW,283,3.0,4.0,80,0.00,,SKC,0.00,VWS V14.01,2013-07-09 17:02:00,
2013-07-09 12:07:00,84.1,77.3,30.16,SW,234,5.0,7.0,80,0.00,,SKC,0.00,VWS V14.01,2013-07-09 17:07:00,
2013-07-09 12:12:00,84.0,76.8,30.16,SW,226,5.0,7.0,79,0.00,,SKC,0.00,VWS V14.01,2013-07-09 17:12:00,
2013-07-09 12:17:00,83.8,76.6,30.16,SW,226,0.0,7.0,79,0.00,,SKC,0.00,VWS V14.01,2013-07-09 17:17:00,
2013-07-09 12:22:00,84.1,77.3,30.16,SW,226,0.0,7.0,80,0.00,,SKC,0.00,VWS V14.01,2013-07-09 17:22:00,
2013-07-09 12:27:00,84.6,77.0,30.16,SW,231,4.0,7.0,78,0.00,,SKC,0.00,VWS V14.01,2013-07-09 17:27:00,
2013-07-09 12:32:00,85.1,77.1,30.16,SW,231,0.0,1.0,77,0.00,,SKC,0.00,VWS V14.01,2013-07-09 17:32:00,
2013-07-09 12:37:00,85.4,76.2,30.15,SW,225,1.0,6.0,74,0.00,,SKC,0.00,VWS V14.01,2013-07-09 17:37:00,
2013-07-09 12:42:00,85.4,76.6,30.15,WSW,256,1.0,6.0,75,0.00,,SKC,0.00,VWS V14.01,2013-07-09 17:42:00,
2013-07-09 12:47:00,85.3,76.5,30.15,WSW,256,0.0,6.0,75,0.00,,SKC,0.00,VWS V14.01,2013-07-09 17:47:00,
2013-07-09 12:52:00,85.4,76.2,30.15,WSW,256,0.0,6.0,74,0.00,,SKC,0.00,VWS V14.01,2013-07-09 17:52:00,
2013-07-09 12:57:00,85.9,76.2,30.15,WSW,256,0.0,6.0,73,0.00,,SKC,0.00,VWS V14.01,2013-07-09 17:57:00,
2013-07-09 13:02:00,86.3,76.6,30.15,WSW,255,1.0,5.0,73,0.00,,SKC,0.00,VWS V14.01,2013-07-09 18:02:00,
2013-07-09 13:07:00,86.1,76.4,30.15,WSW,255,0.0,5.0,73,0.00,,SKC,0.00,VWS V14.01,2013-07-09 18:07:00,
2013-07-09 13:12:00,85.9,75.8,30.14,West,259,4.0,6.0,72,0.00,,SKC,0.00,VWS V14.01,2013-07-09 18:12:00,
2013-07-09 13:17:00,85.8,75.7,30.14,WSW,257,2.0,6.0,72,0.00,,SKC,0.00,VWS V14.01,2013-07-09 18:17:00,
2013-07-09 13:22:00,86.0,75.5,30.14,West,262,5.0,8.0,71,0.00,,SKC,0.00,VWS V14.01,2013-07-09 18:22:00,
2013-07-09 13:27:00,85.9,76.7,30.14,SW,229,4.0,8.0,74,0.00,,SKC,0.00,VWS V14.01,2013-07-09 18:27:00,
2013-07-09 13:32:00,85.7,76.9,30.14,West,271,4.0,7.0,75,0.00,,SKC,0.00,VWS V14.01,2013-07-09 18:32:00,
2013-07-09 13:37:00,85.4,77.0,30.14,WSW,258,8.0,8.0,76,0.00,,SKC,0.00,VWS V14.01,2013-07-09 18:37:00,
2013-07-09 13:42:00,85.2,76.4,30.14,WSW,251,7.0,8.0,75,0.00,,SKC,0.00,VWS V14.01,2013-07-09 18:42:00,
2013-07-09 13:47:00,85.1,75.9,30.13,WSW,254,0.0,8.0,74,0.00,,SKC,0.00,VWS V14.01,2013-07-09 18:47:00,
2013-07-09 13:52:00,85.2,76.0,30.13,WNW,284,5.0,8.0,74,0.00,,SKC,0.00,VWS V14.01,2013-07-09 18:52:00,
2013-07-09 13:57:00,85.2,76.0,30.13,SSW,202,6.0,8.0,74,0.00,,SKC,0.00,VWS V14.01,2013-07-09 18:57:00,
2013-07-09 14:02:00,85.4,77.0,30.13,WNW,300,4.0,7.0,76,0.00,,SKC,0.00,VWS V14.01,2013-07-09 19:02:00,
2013-07-09 14:07:00,85.4,76.2,30.13,West,269,2.0,8.0,74,0.00,,SKC,0.00,VWS V14.01,2013-07-09 19:07:00,
2013-07-09 14:12:00,85.7,76.5,30.13,SSW,192,3.0,8.0,74,0.00,,SKC,0.00,VWS V14.01,2013-07-09 19:12:00,
2013-07-09 14:17:00,85.8,76.2,30.13,West,259,1.0,8.0,73,0.00,,SKC,0.00,VWS V14.01,2013-07-09 19:17:00,
2013-07-09 14:22:00,85.8,76.2,30.13,NW,307,7.0,9.0,73,0.00,,SKC,0.00,VWS V14.01,2013-07-09 19:22:00,
2013-07-09 14:27:00,85.8,76.2,30.13,WNW,286,5.0,9.0,73,0.00,,SKC,0.00,VWS V14.01,2013-07-09 19:27:00,
2013-07-09 14:32:00,85.9,75.8,30.12,NW,309,6.0,7.0,72,0.00,,SKC,0.00,VWS V14.01,2013-07-09 19:32:00,
2013-07-09 14:37:00,85.9,75.8,30.12,WSW,248,1.0,7.0,72,0.00,,SKC,0.00,VWS V14.01,2013-07-09 19:37:00,
2013-07-09 14:42:00,86.0,75.5,30.12,South,173,2.0,8.0,71,0.00,,SKC,0.00,VWS V14.01,2013-07-09 19:42:00,
2013-07-09 14:47:00,86.4,76.3,30.12,South,173,0.0,8.0,72,0.00,,SKC,0.00,VWS V14.01,2013-07-09 19:47:00,
2013-07-09 14:52:00,86.8,75.8,30.12,West,273,5.0,8.0,70,0.00,,SKC,0.00,VWS V14.01,2013-07-09 19:52:00,
2013-07-09 14:57:00,86.6,76.1,30.12,SW,236,2.0,9.0,71,0.00,,SKC,0.00,VWS V14.01,2013-07-09 19:57:00,
2013-07-09 15:02:00,86.5,75.1,30.11,SW,231,5.0,8.0,69,0.00,,SKC,0.00,VWS V14.01,2013-07-09 20:02:00,
2013-07-09 15:07:00,86.5,76.4,30.11,WSW,244,2.0,8.0,72,0.00,,SKC,0.00,VWS V14.01,2013-07-09 20:07:00,
2013-07-09 15:12:00,86.5,76.4,30.11,SSW,196,6.0,8.0,72,0.00,,SKC,0.00,VWS V14.01,2013-07-09 20:12:00,
2013-07-09 15:17:00,86.4,75.9,30.10,SSW,194,0.0,8.0,71,0.00,,SKC,0.00,VWS V14.01,2013-07-09 20:17:00,
2013-07-09 15:22:00,86.4,77.1,30.10,South,173,0.0,8.0,74,0.00,,SKC,0.00,VWS V14.01,2013-07-09 20:22:00,
2013-07-09 15:27:00,86.7,77.8,30.10,West,269,4.0,8.0,75,0.00,,SKC,0.00,VWS V14.01,2013-07-09 20:27:00,
2013-07-09 15:32:00,86.8,78.3,30.10,WNW,300,1.0,4.0,76,0.00,,SKC,0.00,VWS V14.01,2013-07-09 20:32:00,
2013-07-09 15:37:00,86.5,78.4,30.10,SW,229,8.0,8.0,77,0.00,,SKC,0.00,VWS V14.01,2013-07-09 20:37:00,
2013-07-09 15:42:00,86.2,78.5,30.10,WSW,240,2.0,8.0,78,0.00,,SKC,0.00,VWS V14.01,2013-07-09 20:42:00,
2013-07-09 15:47:00,86.3,78.6,30.10,South,187,1.0,8.0,78,0.00,,SKC,0.00,VWS V14.01,2013-07-09 20:47:00,
2013-07-09 15:52:00,86.2,78.5,30.09,WNW,296,1.0,9.0,78,0.00,,SKC,0.00,VWS V14.01,2013-07-09 20:52:00,
2013-07-09 15:57:00,85.8,78.2,30.09,SW,229,0.0,9.0,78,0.00,,SKC,0.00,VWS V14.01,2013-07-09 20:57:00,
2013-07-09 16:02:00,85.7,78.4,30.09,SSW,211,5.0,6.0,79,0.00,,SKC,0.00,VWS V14.01,2013-07-09 21:02:00,
2013-07-09 16:07:00,86.0,78.3,30.09,SW,234,4.0,8.0,78,0.00,,SKC,0.00,VWS V14.01,2013-07-09 21:07:00,
2013-07-09 16:12:00,85.7,78.1,30.09,South,190,7.0,12.0,78,0.00,,SKC,0.00,VWS V14.01,2013-07-09 21:12:00,
2013-07-09 16:17:00,85.6,78.7,30.09,SSW,201,4.0,12.0,80,0.00,,SKC,0.00,VWS V14.01,2013-07-09 21:17:00,
2013-07-09 16:22:00,85.3,77.7,30.09,SSW,197,7.0,12.0,78,0.00,,SKC,0.00,VWS V14.01,2013-07-09 21:22:00,
2013-07-09 16:27:00,85.2,77.9,30.09,SW,228,1.0,12.0,79,0.00,,SKC,0.00,VWS V14.01,2013-07-09 21:27:00,
2013-07-09 16:32:00,84.9,78.0,30.09,SW,229,5.0,8.0,80,0.00,,SKC,0.00,VWS V14.01,2013-07-09 21:32:00,
2013-07-09 16:37:00,85.0,78.1,30.08,SSW,194,6.0,9.0,80,0.00,,SKC,0.00,VWS V14.01,2013-07-09 21:37:00,
2013-07-09 16:42:00,84.8,77.2,30.08,SW,221,6.0,11.0,78,0.00,,SKC,0.00,VWS V14.01,2013-07-09 21:42:00,
2013-07-09 16:47:00,84.6,77.8,30.08,SW,215,7.0,11.0,80,0.00,,SKC,0.00,VWS V14.01,2013-07-09 21:47:00,
2013-07-09 16:52:00,84.5,77.7,30.08,SW,214,4.0,11.0,80,0.00,,SKC,0.00,VWS V14.01,2013-07-09 21:52:00,
2013-07-09 16:57:00,84.5,77.3,30.08,SW,226,7.0,11.0,79,0.00,,SKC,0.00,VWS V14.01,2013-07-09 21:57:00,
2013-07-09 17:02:00,84.3,77.5,30.08,SSW,208,2.0,7.0,80,0.00,,SKC,0.00,VWS V14.01,2013-07-09 22:02:00,
2013-07-09 17:07:00,84.4,76.8,30.08,SSW,194,7.0,10.0,78,0.00,,SKC,0.00,VWS V14.01,2013-07-09 22:07:00,
2013-07-09 17:12:00,84.2,76.2,30.08,WSW,242,5.0,11.0,77,0.00,,SKC,0.00,VWS V14.01,2013-07-09 22:12:00,
2013-07-09 17:17:00,84.5,77.3,30.08,SW,236,0.0,11.0,79,0.00,,SKC,0.00,VWS V14.01,2013-07-09 22:17:00,
2013-07-09 17:22:00,84.7,76.7,30.08,SSW,204,0.0,11.0,77,0.00,,SKC,0.00,VWS V14.01,2013-07-09 22:22:00,
2013-07-09 17:27:00,84.8,76.8,30.08,SW,227,10.0,11.0,77,0.00,,SKC,0.00,VWS V14.01,2013-07-09 22:27:00,
2013-07-09 17:32:00,84.6,76.6,30.08,SSW,213,0.0,9.0,77,0.00,,SKC,0.00,VWS V14.01,2013-07-09 22:32:00,
2013-07-09 17:37:00,84.7,76.7,30.08,SW,218,0.0,9.0,77,0.00,,SKC,0.00,VWS V14.01,2013-07-09 22:37:00,
2013-07-09 17:42:00,84.6,76.2,30.08,SW,227,8.0,9.0,76,0.00,,SKC,0.00,VWS V14.01,2013-07-09 22:42:00,
2013-07-09 17:47:00,84.6,76.2,30.08,WSW,255,5.0,9.0,76,0.00,,SKC,0.00,VWS V14.01,2013-07-09 22:47:00,
2013-07-09 17:52:00,84.5,76.1,30.08,WSW,241,6.0,11.0,76,0.00,,SKC,0.00,VWS V14.01,2013-07-09 22:52:00,
2013-07-09 17:57:00,84.3,75.1,30.08,SW,222,4.0,11.0,74,0.00,,SKC,0.00,VWS V14.01,2013-07-09 22:57:00,
2013-07-09 18:02:00,84.0,76.0,30.07,SW,216,1.0,9.0,77,0.00,,SKC,0.00,VWS V14.01,2013-07-09 23:02:00,
2013-07-09 18:07:00,83.9,76.3,30.07,SW,216,1.0,9.0,78,0.00,,SKC,0.00,VWS V14.01,2013-07-09 23:07:00,
2013-07-09 18:12:00,83.6,76.0,30.07,SSW,213,3.0,9.0,78,0.00,,SKC,0.00,VWS V14.01,2013-07-09 23:12:00,
2013-07-09 18:17:00,83.4,75.8,30.07,SSW,207,5.0,9.0,78,0.00,,SKC,0.00,VWS V14.01,2013-07-09 23:17:00,
2013-07-09 18:22:00,83.2,76.0,30.07,SSW,207,6.0,9.0,79,0.00,,SKC,0.00,VWS V14.01,2013-07-09 23:22:00,
2013-07-09 18:27:00,82.9,76.1,30.08,SW,220,5.0,9.0,80,0.00,,SKC,0.00,VWS V14.01,2013-07-09 23:27:00,
2013-07-09 18:32:00,82.7,75.9,30.07,SSW,196,1.0,6.0,80,0.00,,SKC,0.00,VWS V14.01,2013-07-09 23:32:00,
2013-07-09 18:37:00,82.6,75.8,30.08,SW,219,2.0,6.0,80,0.00,,SKC,0.00,VWS V14.01,2013-07-09 23:37:00,
2013-07-09 18:42:00,82.5,76.1,30.07,SW,219,1.0,6.0,81,0.00,,SKC,0.00,VWS V14.01,2013-07-09 23:42:00,
2013-07-09 18:47:00,82.5,76.1,30.07,West,270,0.0,6.0,81,0.00,,SKC,0.00,VWS V14.01,2013-07-09 23:47:00,
2013-07-09 18:52:00,82.4,76.0,30.08,South,178,0.0,6.0,81,0.00,,SKC,0.00,VWS V14.01,2013-07-09 23:52:00,
2013-07-09 18:57:00,82.2,76.2,30.08,South,179,0.0,6.0,82,0.00,,SKC,0.00,VWS V14.01,2013-07-09 23:57:00,
2013-07-09 19:02:00,82.0,76.0,30.08,South,179,0.0,2.0,82,0.00,,SKC,0.00,VWS V14.01,2013-07-10 00:02:00,
2013-07-09 19:07:00,81.7,75.7,30.08,South,180,0.0,2.0,82,0.00,,SKC,0.00,VWS V14.01,2013-07-10 00:07:00,
2013-07-09 19:12:00,81.5,75.8,30.08,South,188,0.0,3.0,83,0.00,,SKC,0.00,VWS V14.01,2013-07-10 00:12:00,
2013-07-09 19:17:00,81.2,75.6,30.08,South,188,0.0,3.0,83,0.00,,SKC,0.00,VWS V14.01,2013-07-10 00:17:00,
2013-07-09 19:22:00,81.0,75.3,30.08,South,188,0.0,4.0,83,0.00,,SKC,0.00,VWS V14.01,2013-07-10 00:22:00,
2013-07-09 19:27:00,80.8,75.5,30.08,South,188,0.0,4.0,84,0.00,,SKC,0.00,VWS V14.01,2013-07-10 00:27:00,
2013-07-09 19:32:00,80.6,75.3,30.08,South,188,0.0,0.0,84,0.00,,SKC,0.00,VWS V14.01,2013-07-10 00:32:00,
2013-07-09 19:37:00,80.4,75.1,30.08,SSW,193,0.0,1.0,84,0.00,,SKC,0.00,VWS V14.01,2013-07-10 00:37:00,
2013-07-09 19:42:00,80.1,75.2,30.08,SSW,193,0.0,1.0,85,0.00,,SKC,0.00,VWS V14.01,2013-07-10 00:42:00,
2013-07-09 19:47:00,79.9,75.0,30.08,SSW,193,0.0,1.0,85,0.00,,SKC,0.00,VWS V14.01,2013-07-10 00:47:00,
2013-07-09 19:52:00,79.7,74.8,30.08,SSW,193,0.0,1.0,85,0.00,,SKC,0.00,VWS V14.01,2013-07-10 00:52:00,
2013-07-09 19:57:00,79.5,74.9,30.08,SSW,193,0.0,1.0,86,0.00,,SKC,0.00,VWS V14.01,2013-07-10 00:57:00,
2013-07-09 20:02:00,79.3,74.8,30.08,SSW,193,0.0,0.0,86,0.00,,SKC,0.00,VWS V14.01,2013-07-10 01:02:00,
2013-07-09 20:07:00,79.0,74.8,30.07,SSW,193,0.0,0.0,87,0.00,,SKC,0.00,VWS V14.01,2013-07-10 01:07:00,
2013-07-09 20:12:00,78.7,74.5,30.07,SSW,193,0.0,0.0,87,0.00,,SKC,0.00,VWS V14.01,2013-07-10 01:12:00,
2013-07-09 20:17:00,78.5,74.3,30.07,SSW,193,0.0,1.0,87,0.00,,SKC,0.00,VWS V14.01,2013-07-10 01:17:00,
2013-07-09 20:22:00,78.3,74.5,30.08,SSW,193,0.0,1.0,88,0.00,,SKC,0.00,VWS V14.01,2013-07-10 01:22:00,
2013-07-09 20:27:00,78.2,74.4,30.08,SSW,193,0.0,1.0,88,0.00,,SKC,0.00,VWS V14.01,2013-07-10 01:27:00,
2013-07-09 20:32:00,78.1,74.3,30.08,SSW,193,0.0,0.0,88,0.00,,SKC,0.00,VWS V14.01,2013-07-10 01:32:00,
2013-07-09 20:37:00,78.0,74.5,30.09,SSW,193,0.0,0.0,89,0.00,,SKC,0.00,VWS V14.01,2013-07-10 01:37:00,
2013-07-09 20:42:00,77.8,74.0,30.09,SSW,193,0.0,1.0,88,0.00,,SKC,0.00,VWS V14.01,2013-07-10 01:42:00,
2013-07-09 20:47:00,77.8,74.3,30.09,SSW,193,0.0,1.0,89,0.00,,SKC,0.00,VWS V14.01,2013-07-10 01:47:00,
2013-07-09 20:52:00,77.5,74.0,30.09,SSW,193,0.0,1.0,89,0.00,,SKC,0.00,VWS V14.01,2013-07-10 01:52:00,
2013-07-09 20:57:00,77.1,73.6,30.09,SSW,193,0.0,1.0,89,0.00,,SKC,0.00,VWS V14.01,2013-07-10 01:57:00,
2013-07-09 21:02:00,76.8,73.7,30.09,SSW,193,0.0,0.0,90,0.00,,SKC,0.00,VWS V14.01,2013-07-10 02:02:00,
2013-07-09 21:07:00,76.6,73.4,30.09,SSW,193,0.0,0.0,90,0.00,,SKC,0.00,VWS V14.01,2013-07-10 02:07:00,
2013-07-09 21:12:00,76.4,73.2,30.09,SSW,193,0.0,0.0,90,0.00,,SKC,0.00,VWS V14.01,2013-07-10 02:12:00,
2013-07-09 21:17:00,76.3,73.2,30.09,SSW,193,0.0,0.0,90,0.00,,SKC,0.00,VWS V14.01,2013-07-10 02:17:00,
2013-07-09 21:22:00,76.1,73.0,30.10,SSW,193,0.0,0.0,90,0.00,,SKC,0.00,VWS V14.01,2013-07-10 02:22:00,
2013-07-09 21:27:00,75.9,72.8,30.10,SSW,193,0.0,0.0,90,0.00,,SKC,0.00,VWS V14.01,2013-07-10 02:27:00,
2013-07-09 21:32:00,75.7,72.6,30.10,SSW,193,0.0,0.0,90,0.00,,SKC,0.00,VWS V14.01,2013-07-10 02:32:00,
2013-07-09 21:37:00,75.5,72.4,30.11,SSW,193,0.0,0.0,90,0.00,,SKC,0.00,VWS V14.01,2013-07-10 02:37:00,
2013-07-09 21:42:00,75.4,71.9,30.11,SSW,193,0.0,0.0,89,0.00,,SKC,0.00,VWS V14.01,2013-07-10 02:42:00,
2013-07-09 21:47:00,75.3,71.8,30.11,SSW,193,0.0,0.0,89,0.00,,SKC,0.00,VWS V14.01,2013-07-10 02:47:00,
2013-07-09 21:52:00,75.2,71.7,30.11,SSW,193,0.0,0.0,89,0.00,,SKC,0.00,VWS V14.01,2013-07-10 02:52:00,
2013-07-09 21:57:00,75.1,71.6,30.11,SSW,193,0.0,0.0,89,0.00,,SKC,0.00,VWS V14.01,2013-07-10 02:57:00,
2013-07-09 22:02:00,75.0,71.5,30.11,SSW,193,0.0,0.0,89,0.00,,SKC,0.00,VWS V14.01,2013-07-10 03:02:00,
2013-07-09 22:07:00,74.9,71.4,30.11,SSW,193,0.0,0.0,89,0.00,,SKC,0.00,VWS V14.01,2013-07-10 03:07:00,
2013-07-09 22:12:00,74.8,71.3,30.10,SSW,193,0.0,0.0,89,0.00,,SKC,0.00,VWS V14.01,2013-07-10 03:12:00,
2013-07-09 22:17:00,74.7,70.9,30.10,SSW,193,0.0,0.0,88,0.00,,SKC,0.00,VWS V14.01,2013-07-10 03:17:00,
2013-07-09 22:22:00,74.6,70.8,30.10,SSW,193,0.0,0.0,88,0.00,,SKC,0.00,VWS V14.01,2013-07-10 03:22:00,
2013-07-09 22:27:00,74.5,70.7,30.10,SSW,193,0.0,0.0,88,0.00,,SKC,0.00,VWS V14.01,2013-07-10 03:27:00,
2013-07-09 22:32:00,74.4,70.6,30.09,SSW,193,0.0,0.0,88,0.00,,SKC,0.00,VWS V14.01,2013-07-10 03:32:00,
2013-07-09 22:37:00,74.3,70.5,30.10,SSW,193,0.0,0.0,88,0.00,,SKC,0.00,VWS V14.01,2013-07-10 03:37:00,
2013-07-09 22:42:00,74.2,70.1,30.10,SSW,193,0.0,0.0,87,0.00,,SKC,0.00,VWS V14.01,2013-07-10 03:42:00,
2013-07-09 22:47:00,74.2,70.1,30.10,SSW,193,0.0,0.0,87,0.00,,SKC,0.00,VWS V14.01,2013-07-10 03:47:00,
2013-07-09 22:52:00,74.1,70.0,30.10,SSW,193,0.0,0.0,87,0.00,,SKC,0.00,VWS V14.01,2013-07-10 03:52:00,
2013-07-09 22:57:00,74.1,70.0,30.10,SSW,193,0.0,0.0,87,0.00,,SKC,0.00,VWS V14.01,2013-07-10 03:57:00,
2013-07-09 23:01:00,74.1,70.0,30.10,SSW,193,0.0,0.0,87,0.00,,SKC,0.00,VWS V14.01,2013-07-10 04:01:00,
2013-07-09 23:06:00,74.0,69.9,30.09,SSW,193,0.0,0.0,87,0.00,,SKC,0.00,VWS V14.01,2013-07-10 04:06:00,
2013-07-09 23:11:00,74.0,69.9,30.10,SSW,193,0.0,0.0,87,0.00,,SKC,0.00,VWS V14.01,2013-07-10 04:11:00,
2013-07-09 23:16:00,74.0,69.9,30.10,SSW,193,0.0,0.0,87,0.00,,SKC,0.00,VWS V14.01,2013-07-10 04:16:00,
2013-07-09 23:21:00,73.9,69.4,30.09,SSW,193,0.0,0.0,86,0.00,,SKC,0.00,VWS V14.01,2013-07-10 04:21:00,
2013-07-09 23:26:00,73.9,69.4,30.09,SSW,193,0.0,0.0,86,0.00,,SKC,0.00,VWS V14.01,2013-07-10 04:26:00,
2013-07-09 23:31:00,73.8,69.3,30.09,SSW,193,0.0,0.0,86,0.00,,SKC,0.00,VWS V14.01,2013-07-10 04:31:00,
2013-07-09 23:36:00,73.7,69.3,30.09,SSW,193,0.0,0.0,86,0.00,,SKC,0.00,VWS V14.01,2013-07-10 04:36:00,
2013-07-09 23:41:00,73.7,69.3,30.09,SSW,193,0.0,0.0,86,0.00,,SKC,0.00,VWS V14.01,2013-07-10 04:41:00,
2013-07-09 23:46:00,73.6,69.2,30.09,SSW,193,0.0,0.0,86,0.00,,SKC,0.00,VWS V14.01,2013-07-10 04:46:00,
2013-07-09 23:51:00,73.5,69.1,30.09,SSW,193,0.0,0.0,86,0.00,,SKC,0.00,VWS V14.01,2013-07-10 04:51:00,
2013-07-09 23:56:00,73.5,69.1,30.09,SSW,193,0.0,0.0,86,0.00,,SKC,0.00,VWS V14.01,2013-07-10 04:56:00,